Location: Unspecified
(0.0000°N, 0.0000°E)
Time: 10:25:05
(UTC+00:00)

Courier 1B - All Passes

Search period start: 27 September 2016 00:00
Search period end: 07 October 2016 00:00
Orbit: 963 x 1209 km, 28.3° (Epoch: 26 September)

Date Brightness Start Highest point End Pass type
(mag) Time Alt. Az. Time Alt. Az. Time Alt. Az.
27 Sep - 07:37:31 10° SSW 07:42:49 26° SSE 07:48:06 10° E daylight
27 Sep - 09:30:26 10° WSW 09:36:56 85° NNW 09:43:34 10° ENE daylight
27 Sep - 11:26:02 10° WNW 11:31:11 24° NNW 11:36:31 10° NNE daylight
27 Sep - 19:09:19 10° NNW 19:15:43 27° NNE 19:22:08 10° E visible
27 Sep - 21:02:28 10° WNW 21:10:23 83° NNE 21:18:08 10° ESE visible
27 Sep - 22:58:08 10° W 23:04:53 32° SSW 23:11:26 10° SSE night (unlit)
28 Sep - 06:44:28 10° SSW 06:48:55 19° SSE 06:53:19 10° ESE daylight
28 Sep - 08:36:46 10° SW 08:43:13 69° SSE 08:49:43 10° ENE daylight
28 Sep - 10:31:36 10° W 10:37:18 32° NNW 10:43:11 10° NE daylight
28 Sep - 18:16:07 10° NNW 18:21:33 20° NNE 18:27:05 10° ENE visible
28 Sep - 20:08:38 10° NW 20:16:22 62° NNE 20:24:05 10° ESE visible
28 Sep - 22:03:29 10° W 22:10:51 43° SSW 22:18:03 10° SE visible
29 Sep - 00:02:08 10° SW 00:05:52 14° SSW 00:09:32 10° S night (unlit)
29 Sep - 05:51:39 10° S 05:54:56 14° SSE 05:58:09 10° SE daylight
29 Sep - 07:43:14 10° SW 07:49:30 48° SSE 07:55:42 10° ENE daylight
29 Sep - 09:37:22 10° W 09:43:30 45° NNW 09:49:45 10° NE daylight
29 Sep - 11:35:09 10° NW 11:38:09 13° NNW 11:41:13 10° N daylight
29 Sep - 17:23:13 10° N 17:27:20 15° NNE 17:31:31 10° NE daylight
29 Sep - 19:14:59 10° NW 19:22:20 46° NNE 19:29:47 10° E visible
29 Sep - 21:09:07 10° WNW 21:16:50 59° SSW 21:24:28 10° SE visible
29 Sep - 23:06:25 10° WSW 23:11:39 19° SSW 23:16:48 10° SSE night (unlit)
30 Sep - 04:59:54 10° S 05:00:48 10° SSE 05:01:44 10° SSE visible
30 Sep - 06:49:48 10° SW 06:55:43 34° SSE 07:01:30 10° E daylight
30 Sep - 08:43:21 10° WSW 08:49:46 64° NNW 08:56:13 10° NE daylight
30 Sep - 10:39:53 10° WNW 10:44:07 18° NNW 10:48:26 10° NNE daylight
30 Sep - 16:31:10 10° N 16:33:03 11° NNE 16:34:58 10° NE daylight
30 Sep - 18:21:31 10° NW 18:28:17 34° NNE 18:35:14 10° E visible
30 Sep - 20:15:00 10° WNW 20:22:49 79° SSW 20:30:41 10° SE visible
30 Sep - 22:11:13 10° W 22:17:30 26° SSW 22:23:41 10° SSE visible
01 Oct - 05:56:30 10° SSW 06:01:52 25° SSE 06:07:05 10° E daylight
01 Oct - 07:49:29 10° WSW 07:56:04 90° N 08:02:33 10° ENE daylight
01 Oct - 09:45:06 10° W 09:50:13 24° NNW 09:55:23 10° NNE daylight
01 Oct - 17:28:15 10° NNW 17:34:13 25° NNE 17:40:22 10° E daylight
01 Oct - 19:21:05 10° NW 19:28:49 79° NNE 19:36:43 10° ESE visible
01 Oct - 21:16:25 10° W 21:23:23 34° SSW 21:30:20 10° SE visible
01 Oct - 23:16:16 10° SW 23:18:43 12° SSW 23:21:10 10° S night (unlit)
02 Oct - 05:03:19 10° SSW 05:07:54 19° SSE 05:12:22 10° ESE visible
02 Oct - 06:55:45 10° SW 07:02:21 64° SSE 07:08:45 10° ENE daylight
02 Oct - 08:50:36 10° W 08:56:22 34° NNW 09:02:10 10° NE daylight
02 Oct - 16:35:15 10° NNW 16:40:07 18° NNE 16:45:06 10° ENE daylight
02 Oct - 18:27:23 10° NW 18:34:50 58° NNE 18:42:32 10° ESE visible
02 Oct - 20:21:56 10° W 20:29:19 46° SSW 20:36:47 10° SE visible
02 Oct - 22:20:01 10° WSW 22:24:24 16° SSW 22:28:45 10° SSE night (unlit)
03 Oct - 04:10:22 10° S 04:13:51 14° SSE 04:17:14 10° SE visible
03 Oct - 06:02:08 10° SW 06:08:35 46° SSE 06:14:47 10° E daylight
03 Oct - 07:56:20 10° WSW 08:02:38 48° NNW 08:08:49 10° NE daylight
03 Oct - 09:54:06 10° NW 09:57:07 13° NNW 10:00:10 10° N daylight
03 Oct - 15:42:41 10° N 15:45:56 13° NNE 15:49:16 10° NE daylight
03 Oct - 17:33:53 10° NW 17:40:51 42° NNE 17:48:07 10° E daylight
03 Oct - 19:27:42 10° WNW 19:35:17 62° SSW 19:43:04 10° SE visible
03 Oct - 21:24:34 10° WSW 21:30:09 21° SSW 21:35:44 10° SSE visible
04 Oct - 03:18:04 10° S 03:19:39 11° SSE 03:21:12 10° SSE visible
04 Oct - 05:08:37 10° SW 05:14:45 33° SSE 05:20:36 10° E visible
04 Oct - 07:02:14 10° WSW 07:08:54 69° NNW 07:15:20 10° NE daylight
04 Oct - 08:58:47 10° WNW 09:03:09 19° NNW 09:07:31 10° NNE daylight
04 Oct - 16:40:33 10° NNW 16:46:51 31° NNE 16:53:27 10° E daylight
04 Oct - 18:33:43 10° WNW 18:41:17 83° SSW 18:49:11 10° ESE visible
04 Oct - 20:29:35 10° W 20:35:58 27° SSW 20:42:26 10° SSE visible
05 Oct - 04:15:12 10° SSW 04:20:49 25° SSE 04:26:12 10° ESE visible
05 Oct - 06:08:18 10° WSW 06:15:11 85° SSE 06:21:43 10° ENE daylight
05 Oct - 08:03:56 10° W 08:09:16 26° NNW 08:14:33 10° NNE daylight
05 Oct - 15:47:28 10° NNW 15:52:51 22° NNE 15:58:27 10° ENE daylight
05 Oct - 17:39:57 10° NW 17:47:20 74° NNE 17:55:06 10° ESE daylight
05 Oct - 19:34:57 10° W 19:41:51 36° SSW 19:48:57 10° SE visible
05 Oct - 21:34:04 10° SW 21:37:12 13° SSW 21:40:22 10° S visible
06 Oct - 03:21:54 10° SSW 03:26:47 19° SSE 03:31:28 10° ESE visible
06 Oct - 05:14:29 10° SW 05:21:24 61° SSE 05:27:56 10° ENE visible
06 Oct - 07:09:22 10° W 07:15:28 36° NNW 07:21:23 10° NE daylight
06 Oct - 09:09:35 10° NNW 09:10:10 10° NNW 09:10:44 10° NNW daylight
06 Oct - 14:54:42 10° NNW 14:58:48 16° NNE 15:03:02 10° ENE daylight
06 Oct - 16:46:24 10° NW 16:53:24 53° NNE 17:00:50 10° ESE daylight
06 Oct - 18:40:37 10° WNW 18:47:48 48° SSW 18:55:18 10° SE visible
06 Oct - 20:38:14 10° WSW 20:42:52 17° SSW 20:47:34 10° SSE visible
